Regional Weather Roundup
Issued by NWS

Home | Current Version | Previous Version | Graphics & Text | Print | Product List | Glossary Off
Versions: 1 2 3 4 5 6 7 8 9 10 11 12 13 14 15 16 17 18 19 20 21 22 23 24 25 26 27 28 29 30 31 32 33 34 35 36 37 38 39 40 41 42 43 44 45 46 47 48 49 50

000
ASUS43 KTOP 241559
RWRKS

WEATHER ROUNDUP FOR KANSAS
NATIONAL WEATHER SERVICE GOODLAND KS
1100 AM CDT THU APR 24 2014

NOTE:  "FAIR" INDICATES FEW OR NO CLOUDS BELOW 12,000 FEET WITH NO
SIGNIFICANT WEATHER AND/OR OBSTRUCTIONS TO VISIBILITY.

KSZ001>006-013>018-027>032-041>047-241700-
NORTHWEST KANSAS

CITY           SKY/WX    TMP DP  RH WIND       PRES   REMARKS
GOODLAND       SUNNY     58  24  27 N24G32    29.96S
HAYS           CLOUDY    57  37  47 NW22G28   29.88R
HILL CITY      CLOUDY    58  38  47 NW16G26   29.90R
RUSSELL        CLOUDY    57  42  57 NW16      29.85R
$$

KSZ061>065-074>080-084>089-241700-
SOUTHWEST KANSAS

CITY           SKY/WX    TMP DP  RH WIND       PRES   REMARKS
DODGE CITY     CLOUDY    57  40  52 N18G28    29.93R
ELKHART          N/A     56  29  35 NW17        N/A
GARDEN CITY    SUNNY     61  30  31 N25G33    29.95R
GREAT BEND     CLOUDY    54  43  66 NW17G24   29.86R
LIBERAL        SUNNY     63  36  36 N25G31    29.97R
$$

KSZ066>073-081>083-090>101-241700-
SOUTHEAST KANSAS

CITY           SKY/WX    TMP DP  RH WIND       PRES   REMARKS
CHANUTE        CLOUDY    70  62  76 S20G26    29.62F
COFFEYVILLE    CLOUDY    70  61  73 S20G37    29.64F
HUTCHINSON     PTSUNNY   61  47  59 NW23      29.78R
MEDICINE LODGE   N/A     63  43  48 NW24G43   29.82R
NEWTON         CLOUDY    54  46  76 NW23      29.78R
PARSONS        CLOUDY    70  60  70 S13G26    29.65F
WICHITA INTL   LGT RAIN  56  51  84 NW15G26   29.76R
WICHITA JABRA  CLOUDY    56  54  93 NW25G31   29.74R
WICHITA MCCONL CLOUDY    57  57 100 NW17G29   29.74R
WINFIELD       CLOUDY    61  53  75 NW22G28   29.73R
$$

KSZ007>012-019>026-033>040-048>060-102>105-241700-
NORTHEAST KANSAS

CITY           SKY/WX    TMP DP  RH WIND       PRES   REMARKS
CONCORDIA      CLOUDY    54  45  71 N14G22    29.77S
EMPORIA        TSTM      55  53  93 NW17G30   29.70R FOG
LAWRENCE       CLOUDY    63  59  87 SE10      29.62F
MANHATTAN      RAIN      54  53  97 N10G18    29.77R FOG
OLATHE IND     LGT RAIN  59  56  89 SE13      29.62F FOG
OLATHE EXE     LGT RAIN  58  56  93 S13       29.62F FOG
SALINA         CLOUDY    57  48  72 NW18      29.78R
TOPEKA BILLARD CLOUDY    62  57  83 NW12      29.64F
TOPEKA FORBES  CLOUDY    62  57  83 NW12      29.63F
$$



USA.gov is the U.S. government's official web portal to all federal, state and local government web resources and services.